TimePDT,TemperatureF,Dew PointF,Humidity,Sea Level PressureIn,VisibilityMPH,Wind Direction,Wind SpeedMPH,Gust SpeedMPH,PrecipitationIn,Events,Conditions,WindDirDegrees,DateUTC
12:56 AM,50.0,16.0,26,30.01,10.0,Calm,Calm,-,N/A,,Clear,0,2012-10-31 07:56:00
1:56 AM,48.9,16.0,27,30.01,10.0,Calm,Calm,-,N/A,,Clear,0,2012-10-31 08:56:00
2:56 AM,48.0,19.0,32,30.00,10.0,SSW,9.2,-,N/A,,Clear,210,2012-10-31 09:56:00
3:56 AM,46.9,18.0,32,29.99,10.0,Calm,Calm,-,N/A,,Clear,0,2012-10-31 10:56:00
4:56 AM,43.0,15.1,32,29.99,10.0,Calm,Calm,-,N/A,,Clear,0,2012-10-31 11:56:00
5:56 AM,42.1,15.1,34,30.00,10.0,WSW,4.6,-,N/A,,Clear,240,2012-10-31 12:56:00
6:56 AM,43.0,18.0,37,30.03,10.0,South,6.9,-,N/A,,Clear,190,2012-10-31 13:56:00
7:56 AM,46.0,18.0,33,30.05,10.0,Calm,Calm,-,N/A,,Clear,0,2012-10-31 14:56:00
8:56 AM,52.0,18.0,26,30.06,10.0,Calm,Calm,-,N/A,,Clear,0,2012-10-31 15:56:00
9:56 AM,61.0,19.9,21,30.05,10.0,Calm,Calm,-,N/A,,Clear,0,2012-10-31 16:56:00
10:56 AM,68.0,19.9,16,30.03,10.0,Calm,Calm,-,N/A,,Clear,0,2012-10-31 17:56:00
11:56 AM,73.0,21.0,14,30.00,10.0,ENE,3.5,-,N/A,,Partly Cloudy,60,2012-10-31 18:56:00
12:56 PM,77.0,19.9,12,29.96,10.0,Calm,Calm,-,N/A,,Scattered Clouds,0,2012-10-31 19:56:00
1:56 PM,82.9,17.1,9,29.94,10.0,SSE,12.7,18.4,N/A,,Mostly Cloudy,150,2012-10-31 20:56:00
2:56 PM,84.0,12.9,7,29.91,10.0,South,15.0,-,N/A,,Mostly Cloudy,170,2012-10-31 21:56:00
3:56 PM,82.0,16.0,8,29.91,10.0,SSE,11.5,-,N/A,,Mostly Cloudy,160,2012-10-31 22:56:00
4:56 PM,80.1,17.1,9,29.90,10.0,South,10.4,-,N/A,,Mostly Cloudy,190,2012-10-31 23:56:00
5:56 PM,77.0,15.1,10,29.90,10.0,South,9.2,-,N/A,,Mostly Cloudy,180,2012-11-01 00:56:00
6:56 PM,73.0,17.1,12,29.91,10.0,SSW,10.4,-,N/A,,Mostly Cloudy,200,2012-11-01 01:56:00
7:56 PM,66.9,17.1,15,29.92,10.0,SSW,6.9,-,N/A,,Mostly Cloudy,200,2012-11-01 02:56:00
8:56 PM,61.0,18.0,19,29.93,10.0,South,9.2,-,N/A,,Mostly Cloudy,180,2012-11-01 03:56:00
9:56 PM,62.1,19.9,20,29.91,10.0,South,8.1,-,N/A,,Mostly Cloudy,190,2012-11-01 04:56:00
10:56 PM,63.0,21.9,21,29.91,10.0,SSW,11.5,-,N/A,,Mostly Cloudy,200,2012-11-01 05:56:00
11:56 PM,61.0,19.0,20,29.91,10.0,South,10.4,-,N/A,,Clear,190,2012-11-01 06:56:00